4417 visiteurs
Prévisions de votre ville :
Vigilance : 14 départements 76 départements le 12/08/20 à 16:12 - Voir la carte - Être alerté(e)

Paris Roissy CDG (95380) le 12/08/20 à 19:30 Choisir station

30°C 46 % SSO Vit. moyenne 19 km/h

Relevés météo quotidiens pour la station de :

UTC
S: Synop
M: Metar
Loc T°C
(°C)
Td
(°C)
HR
(%)
Vis
(km)
Néb
(octa)
Vent
(km/h)
Pression
(mb)
Précipitations
(mm)
Temps
              MOY
10 min
DIR RAF 1h MESURE VAR SUR 3h    
S 00 h 01h 13.6 2.5 47 - 22 68 1022.6 -0.5/3h 0.0/6h - 0.0/3h -
S 01 h 02h 13.4 5.8 60 - 48 85 1023.3 +0.5/3h 0.0/1h -
S 02 h 03h 13.4 6.7 64 - 57 87 1022.2 -0.7/3h 0.0/1h -
S 03 h 04h 13.4 6.5 63 12 0/8 57 102 1021.9 -0.7/3h 0.0/3h
S 04 h 05h 13.4 6.7 64 - 67 109 1021.4 -1.9/3h 0.0/1h -
S 05 h 06h 13.8 4.6 54 - 70 109 1021.7 -0.5/3h 0.0/1h -
S 06 h 07h 13.8 5.7 58 12 0/8 63 115 1022.2 +0.3/3h 0.0/12h - 0.0/3h - 0.0/24h
S 07 h 08h 14.0 6.4 60 - 59 117 1022.6 +1.2/3h 0.0/1h -
S 08 h 09h 14.5 6.1 57 - 30 101 1023.5 +1.8/3h 0.0/1h -
S 09 h 10h 14.7 5.7 55 12 0/8 70 109 1023.7 +1.5/3h 0.0/3h
S 10 h 11h 14.7 6.5 58 - 70 111 1024.5 +1.9/3h 0.0/1h -
S 11 h 12h 14.5 7.8 64 - 69 117 1024.2 +0.7/3h 0.0/1h -
S 12 h 13h 14.6 8.1 65 12 6/8 43 122 1023.3 -0.4/3h 0.0/6h - 0.0/3h
S 13 h 14h 14.4 7.9 65 - 76 120 1022.8 -1.7/3h 0.0/1h -
S 14 h 15h 14.3 7.8 65 - 76 119 1022.5 -1.7/3h 0.0/1h -
S 15 h 16h 13.8 8.8 72 12 6/8 70 111 1022.6 -0.7/3h 0.0/3h
S 16 h 17h 13.4 6.9 65 - 80 117 1022.1 -0.7/3h 0.0/1h -
S 17 h 18h 13.8 7.1 64 - 28 115 1022.6 +0.1/3h 0.0/1h -
S 18 h 19h 13.9 7.0 63 - 46 109 1023.9 +1.3/3h 0.0/12h - 0.0/3h -
S 19 h 20h 13.8 7.6 66 - 22 101 1023.8 +1.7/3h 0.0/1h -
S 20 h 21h 14.1 7.6 65 - 20 97 1024.1 +1.5/3h 0.0/1h -
S 21 h 22h 14.3 7.6 64 - 33 81 1024.1 +0.2/3h 0.0/3h -
S 22 h 23h 14.1 8.5 69 - 43 109 1023.9 +0.1/3h 0.0/1h -
S 23 h 00h 14.3 8.7 69 - 37 87 1023.6 -0.5/3h 0.0/1h -
evolution des temperatures
cumul des precipitations
vent moyen et rafales
pression atmospherique

Un tiret (-) signifie que les données ne sont pas disponibles.

Passez la souris sur les pictos temps pour avoir plus de précisions. Passez les flèches sur l'icône de la direction du vent pour voir la direction précise en degrés.

Les données de l'heure en cours sont disponibles à partir de H+15 minutes.


S signifie station Synop, plus complète qu'une station Metar (M). Il y a +1h de différence entre l'heure UTC et l'heure légale en hiver et +2h en été.

Td est la mesure du point de rosée.

HR est l'humidité relative/p>

Vis est la visibilité

Néb est la nébulosité du ciel (couverture nuageuse) exprimée en octas (de 0/8 à 8/8).

Vent moy 10 min donne le vent moyen sur les 10 minutes qui précèdent le relevé.

Vent raf 1h donne la rafale maximale mesurée dans l'heure qui précède le relevé.


Les données les plus anciennes remontent à avril 2014.

Les données présentées sur cette page proviennent des stations météo officielles. Les relevés sont effectués aux normes en vigueur (anémomètre à 10m de haut, thermomètre sous abri normalisé à 2m du sol...)

Météo 60 décline toute responsabilité en cas d'absence de données, d'erreurs, de mauvaise utilisation ou interprétation et n'est pas habilité à fournir des certificats intempéries.